星链-31414 (STARLINK-31414 )

导读 | 星芒AI

STARLINK-31414 是 SpaceX Starlink 项目中的一颗低轨通信卫星,属于第三代星链卫星(v1.5 或 v2 版本)。该卫星于2023年发射,部署在约550公里高度的近地轨道,旨在为全球用户提供高速互联网服务。它采用先进的推进系统和激光通信技术,提高网络稳定性和数据传输效率。作为星链星座的一部分,STARLINK-31414 有助于扩大覆盖范围,支持偏远地区的网络接入,并增强整体星座的冗余与性能。

基本信息
目录编号:
59418
目录名称:
STARLINK-31414
国际标识:
2024-064W
轨道中心:
EARTH
卫星名称:
星链-31414
卫星全名:
星链-31414 (STARLINK-31414 )
卫星状态:
在轨 (已飞行623 天)
发射日期:
2024-04-05 UTC
国别 :
美国 (US)
星等 :
--
轨道信息
数据来源 国际轨道数据
星历时间: 2025-12-19T03:08:48+0800
1天前
查看轨道信息
半长轴: 6861.195km
偏心率: 0.000123
轨道倾角: 43.001°
近地点辐角 267.769°
升交点赤经 153.070°
平近点角 92.302°
近地点: 482.216km
远地点: 483.904km
周期: 94.267分钟
每日圈数: 15.275773
详细信息
固有亮度:
5
最大亮度:
0.3
卫星平台:
Starlink v2.0 mini
覆盖范围:
全球
运营商:
太空探索技术公司
运营商所在国:
美国
制造商(研发单位):
太空探索技术公司
制造商所在国:
美国
使用方式:
暂无
卫星简介
星链(Starlink)计划是由太空探索技术公司(SpaceX)提出的一个巨型低轨卫星互联网星座项目,计划在2019年至2024年间在太空搭建由约1.2万颗卫星组成的“星链”网络,其中1584颗将部署在地球上空550千米处的近地轨道,并从2020年开始工作。该卫星仍在工作。
2D轨道图
3D轨道图
轨道高度分析图
轨道倾角分析图
轨道综合分析图
查看轨道综合分析图